[[{"header":{"parameterUnit":"m.s-1","parameterCategory":1,"la1":30.2991,"la2":30.254,"lo1":-89.0895,"lo2":-89.0444,"dy":0.0017,"dx":0.0017,"nx":28,"ny":28,"refTime":"2026-01-08T03:00:00:Z","depth":0,"parameterNumber":2,"parameterNumberName":"U-component_of_WINDS"},"data":[0,0,0,0,0,0,0,0,0,0,0,0,0,0,0,0,0,0,0,0,0,0,0,0,0,0,0,0,0,0,0,0,0,0,0,0,0,0,0,0,0,0,0,0,0,0,0,0,0,0,0,0,0,0,0,0,0,0,0.0978,0.0979,0,0.101,0.1011,0.1011,0.1003,0.1002,0.1001,0.1001,0.1035,0.1036,0.1038,0,0,0,0,0,0,0,0,0,0,0,0,0,0.0911,0.0913,0.0978,0.0979,0.0979,0.101,0.1011,0.1011,0.1003,0.1002,0.1001,0.1,0.1035,0.1036,0.1038,0,0,0,0,0,0,0,0,0,0,0,0,0,0.0942,0.0913,0.0978,0.0979,0.0979,0.101,0.1011,0.1011,0.1003,0.1002,0.1001,0.1,0.1034,0.1036,0.1038,0.1071,0,0,0.1045,0.1046,0,0,0,0,0,0,0,0,0.094,0.0944,0.0978,0.0979,0.0979,0.1001,0.1,0.1031,0.1003,0.0994,0.1001,0.1,0.1025,0.1028,0.1036,0.1073,0.1075,0.1045,0.1047,0.1048,0.1048,0,0,0,0,0,0,0,0.0938,0.0943,0.0991,0.0979,0.0979,0.0978,0.0981,0.1006,0.1014,0.0995,0.0994,0.0998,0.1025,0.1034,0.1037,0.1075,0.1045,0.1047,0.1049,0.105,0.114,0.1141,0,0,0,0,0,0,0.0935,0.0941,0.099,0.0992,0.0957,0.098,0.0983,0.0995,0.1014,0.1016,0.0999,0.0997,0.103,0.1034,0.1038,0.1077,0.1048,0.105,0.1051,0.1139,0.1141,0.1142,0,0,0,0,0,0,0.0934,0.094,0.0989,0.0966,0.0972,0.0982,0.0995,0.0996,0.1005,0.1017,0.1019,0.1006,0.103,0.1035,0.1063,0.1079,0.1051,0.1053,0.1138,0.114,0.1141,0.1157,0,0,0,0,0,0,0.0932,0.0939,0.0952,0.0967,0.0974,0.1013,0.0996,0.0998,0.1009,0.1008,0.1024,0.1026,0.1029,0.106,0.1065,0.1081,0.1055,0.1137,0.1139,0.1141,0.1155,0.1159,0.1162,0,0,0,0,0,0.093,0.0955,0.0952,0.0958,0.0989,0.1014,0.1018,0.1021,0.101,0.1023,0.103,0.1026,0.1076,0.1063,0.1069,0.1086,0.1136,0.1138,0.1141,0.1154,0.1158,0.1162,0,0,0,0,0,0,0.0943,0.0957,0.0954,0.0986,0.0999,0.1013,0.1029,0.1025,0.1042,0.104,0.1043,0.1047,0.1076,0.1083,0.1068,0.1118,0.1104,0.1108,0.1112,0.1117,0.112,0.1118,0.1057,0,0,0,0,0,0.0949,0.0968,0.098,0.1006,0.1013,0.102,0.103,0.1031,0.1045,0.105,0.106,0.1074,0.1093,0.1105,0.1123,0.1156,0.116,0.1171,0.1174,0.1177,0.1181,0.1198,0.1203,0.115,0.115,0.115,0,0,0.0963,0.0973,0.0985,0.1009,0.1019,0.1038,0.1024,0.1045,0.106,0.1054,0.1081,0.1088,0.1104,0.1135,0.1149,0.1142,0.1196,0.118,0.1182,0.1184,0.1201,0.1206,0.1211,0.1151,0.1151,0.1151,0,0,0.0998,0.1007,0.103,0.1041,0.1056,0.106,0.1066,0.108,0.1084,0.1111,0.1107,0.1125,0.1157,0.1168,0.1178,0.1216,0.1213,0.1222,0.1241,0.1258,0.1262,0.1266,0.128,0.1284,0.1225,0.1225,0.1225,0,0.1013,0.1042,0.1043,0.1064,0.1075,0.1069,0.1093,0.1103,0.1123,0.1131,0.1123,0.1163,0.1173,0.1206,0.1215,0.1224,0.123,0.122,0.1261,0.1265,0.1269,0.1282,0.1287,0.1226,0.1226,0.1226,0.1226,0,0.106,0.1079,0.1096,0.1115,0.1128,0.115,0.1155,0.1167,0.1167,0.1172,0.1199,0.1211,0.1231,0.1239,0.1239,0.1272,0.1268,0.1261,0.1247,0.1275,0.1287,0.1292,0.1228,0.1227,0.1227,0.1227,0,0,0.1104,0.1123,0.1129,0.1138,0.1154,0.1169,0.1191,0.121,0.1221,0.1235,0.1253,0.128,0.1274,0.1285,0.1286,0.1301,0.133,0.1292,0.1293,0.1299,0.1367,0.1373,0.1378,0.1328,0.1329,0.1329,0.1366,0,0.1141,0.1179,0.118,0.1215,0.1233,0.1228,0.1247,0.1259,0.1264,0.128,0.1286,0.1305,0.1295,0.1302,0.1317,0.1324,0.1344,0.1321,0.1345,0.1346,0.1342,0.1385,0.1391,0.1425,0.1371,0.1372,0.1372,0,0.1188,0.1203,0.1239,0.1252,0.126,0.1277,0.1294,0.131,0.1323,0.1326,0.1338,0.1337,0.1359,0.1344,0.1375,0.1359,0.1369,0.1374,0.1375,0.1378,0.1361,0.1389,0.1436,0.1441,0.138,0.1379,0.1379,0,0.1217,0.1246,0.1271,0.1279,0.1294,0.1306,0.1314,0.1326,0.1337,0.1352,0.1359,0.1377,0.1387,0.1401,0.1404,0.1393,0.1435,0.1421,0.1439,0.1438,0.1448,0.1447,0.1497,0.1454,0.1454,0.1454,0.1454,0,0.1257,0.1279,0.1284,0.13,0.1325,0.1326,0.1351,0.1357,0.1368,0.1385,0.1382,0.1398,0.1402,0.1419,0.1421,0.1447,0.1451,0.1454,0.1455,0.1455,0.1454,0.1461,0.1459,0.1455,0.1455,0.1455,0.1455,0,0.1293,0.1297,0.1325,0.1337,0.1341,0.1359,0.1369,0.1384,0.1389,0.141,0.1416,0.1423,0.1443,0.1447,0.1471,0.1473,0.1502,0.1501,0.1498,0.1498,0.1515,0.1513,0.1571,0.1579,0.1531,0.1531,0.1532,0,0.1319,0.1336,0.135,0.1361,0.1368,0.1386,0.1397,0.1399,0.1411,0.1427,0.144,0.1459,0.1474,0.1506,0.1513,0.1531,0.153,0.1549,0.1533,0.1532,0.153,0.1529,0.1531,0.1552,0.1553,0.1553,0.1553,0,0.1363,0.1364,0.138,0.1397,0.141,0.1423,0.1436,0.1445,0.1449,0.1462,0.1482,0.1494,0.1517,0.1536,0.1554,0.1562,0.1558,0.1558,0.1564,0.1564,0.1561,0.1563,0.1506,0.1557,0.1557,0.1557,0.1556,0.1556,0.1395,0.141,0.1422,0.1439,0.1449,0.1461,0.1475,0.1481,0.1498,0.1517,0.1517,0.1538,0.1551,0.1574,0.1583,0.16,0.1594,0.1601,0.1603,0.1605,0.1606,0.1558,0.1603,0.1603,0.1603,0.1603,0.1603,0,0.1439,0.1446,0.1463,0.148,0.1494,0.1489,0.1503,0.1515,0.1533,0.1545,0.156,0.1583,0.1601,0.161,0.1628,0.1639,0.1638,0.1644,0.1643,0.1645,0.1611,0.1605,0.1645,0.1645,0.1645,0.1645,0.1645,0.1645,0.1464,0.1488,0.1491,0.152,0.1527,0.1548,0.1556,0.1567,0.1576,0.1601,0.1616,0.1621,0.1632,0.1651,0.1667,0.1669,0.1676,0.1683,0.1684,0.1652,0.1648,0.1644,0.1638,0.1684,0.1684,0.1717,0.1717,0.1718]},{"header":{"parameterUnit":"m.s-1","parameterCategory":1,"la1":30.2991,"la2":30.254,"lo1":-89.0895,"lo2":-89.0444,"dy":0.0017,"dx":0.0017,"nx":28,"ny":28,"refTime":"2026-01-08T03:00:00:Z","depth":0,"parameterNumber":3,"parameterNumberName":"V-component_of_WINDS"},"data":[0,0,0,0,0,0,0,0,0,0,0,0,0,0,0,0,0,0,0,0,0,0,0,0,0,0,0,0,0,0,0,0,0,0,0,0,0,0,0,0,0,0,0,0,0,0,0,0,0,0,0,0,0,0,0,0,0,0,3.0139,3.014,0,3.0257,3.0258,3.0259,3.0265,3.0264,3.0263,3.0261,3.0376,3.038,3.0384,0,0,0,0,0,0,0,0,0,0,0,0,0,2.9913,2.9917,3.0139,3.014,3.0142,3.0257,3.0258,3.026,3.0266,3.0264,3.0262,3.0261,3.0374,3.0379,3.0384,0,0,0,0,0,0,0,0,0,0,0,0,0,3.0019,2.9919,3.0138,3.0158,3.0161,3.0256,3.0258,3.026,3.0266,3.0264,3.0262,3.026,3.0372,3.0379,3.0385,3.0466,0,0,3.0405,3.0408,0,0,0,0,0,0,0,0,3.0013,3.0027,3.0154,3.0157,3.0161,3.0244,3.0221,3.0329,3.0266,3.0226,3.0261,3.0259,3.0333,3.0343,3.0369,3.0471,3.0476,3.0405,3.0409,3.0412,3.0414,0,0,0,0,0,0,0,3.0006,3.0022,3.0185,3.0156,3.016,3.016,3.0173,3.0241,3.0289,3.0229,3.023,3.0244,3.0334,3.0363,3.0372,3.0478,3.0405,3.0411,3.0415,3.0417,3.0655,3.0657,0,0,0,0,0,0,2.9995,3.0016,3.0181,3.0189,3.0081,3.0166,3.018,3.0219,3.0289,3.0297,3.0246,3.0244,3.0353,3.0364,3.0376,3.0477,3.0412,3.0418,3.0422,3.0652,3.0655,3.0658,0,0,0,0,0,0,2.999,3.001,3.0177,3.0103,3.0124,3.0172,3.0216,3.0223,3.0251,3.0301,3.0309,3.0267,3.0352,3.0367,3.0445,3.0481,3.0421,3.0427,3.0649,3.0653,3.0656,3.0679,0,0,0,0,0,0,2.9984,3.0008,3.004,3.0104,3.0128,3.0245,3.0218,3.0227,3.0263,3.0262,3.0323,3.0331,3.0351,3.0435,3.0451,3.0489,3.0432,3.0646,3.0651,3.0655,3.0675,3.0683,3.069,0,0,0,0,0,2.9976,3.004,3.0042,3.0062,3.0169,3.0247,3.0261,3.0285,3.0266,3.0298,3.0331,3.0329,3.0474,3.0443,3.0461,3.0501,3.0644,3.065,3.0655,3.0672,3.0682,3.069,0,0,0,0,0,0,2.9976,3.0048,3.0051,3.0138,3.0187,3.0248,3.0289,3.0294,3.0347,3.0343,3.0369,3.0383,3.046,3.0488,3.0452,3.0585,3.0557,3.0566,3.0564,3.0573,3.058,3.0572,3.0437,0,0,0,0,0,2.9987,3.0046,3.0104,3.0175,3.02,3.024,3.0275,3.029,3.034,3.036,3.0398,3.0446,3.0503,3.0539,3.0594,3.0679,3.0693,3.0716,3.0723,3.0729,3.0737,3.0787,3.0798,3.0676,3.0676,3.0676,0,0,3.0008,3.0055,3.009,3.0177,3.0216,3.0276,3.0257,3.032,3.0364,3.0369,3.0446,3.0476,3.053,3.0613,3.0651,3.0639,3.0774,3.0736,3.074,3.0745,3.0793,3.0805,3.0815,3.0679,3.0679,3.0678,0,0,3.0079,3.0119,3.0185,3.0225,3.0287,3.0314,3.0329,3.0391,3.0412,3.049,3.0496,3.0548,3.0644,3.0684,3.0717,3.0806,3.0806,3.0822,3.086,3.0908,3.0918,3.0927,3.096,3.0972,3.083,3.083,3.083,0,3.0097,3.0189,3.0216,3.0281,3.0319,3.0329,3.0395,3.0433,3.0507,3.0533,3.0519,3.0643,3.068,3.0773,3.0796,3.0821,3.084,3.0816,3.0915,3.0924,3.0932,3.0965,3.0977,3.0832,3.0831,3.0831,3.0831,0,3.021,3.0273,3.0318,3.0394,3.0437,3.0502,3.0538,3.0578,3.059,3.0618,3.0699,3.0745,3.081,3.0833,3.0843,3.0929,3.092,3.091,3.0883,3.0945,3.0976,3.0989,3.0834,3.0834,3.0833,3.0833,0,0,3.0282,3.0376,3.0392,3.0428,3.0497,3.0546,3.0611,3.0679,3.0713,3.0765,3.0821,3.0904,3.0896,3.0933,3.0948,3.0991,3.1061,3.0976,3.0977,3.0992,3.116,3.1169,3.1183,3.1062,3.1064,3.1066,3.1157,0,3.0362,3.0481,3.0509,3.0611,3.0671,3.0682,3.0739,3.0788,3.0816,3.087,3.0901,3.0961,3.0945,3.0968,3.101,3.1043,3.1095,3.1037,3.1114,3.1116,3.1101,3.1199,3.1207,3.129,3.1169,3.1171,3.1172,0,3.047,3.0529,3.0637,3.0703,3.0729,3.078,3.0845,3.0896,3.0952,3.097,3.1013,3.1025,3.1093,3.1062,3.1157,3.1117,3.1149,3.1171,3.1174,3.1183,3.1149,3.1212,3.1317,3.133,3.1191,3.1189,3.1188,0,3.0515,3.062,3.07,3.073,3.0807,3.0843,3.0876,3.093,3.097,3.1026,3.1052,3.1114,3.1148,3.1196,3.1224,3.1199,3.1317,3.1288,3.1334,3.1333,3.1358,3.1357,3.1473,3.1377,3.1377,3.1377,3.1376,0,3.0601,3.0668,3.0722,3.077,3.0846,3.0877,3.095,3.0983,3.1031,3.1086,3.1098,3.1149,3.1183,3.1239,3.1261,3.1337,3.1351,3.1368,3.1373,3.1368,3.1366,3.139,3.1386,3.138,3.1379,3.1379,3.1378,0,3.0664,3.0702,3.0791,3.0858,3.0876,3.0929,3.0986,3.1034,3.1064,3.1133,3.1151,3.1198,3.1264,3.1297,3.1378,3.1394,3.148,3.1481,3.1463,3.1465,3.151,3.1506,3.1647,3.1667,3.1557,3.1558,3.1558,0,3.0717,3.0769,3.0844,3.0883,3.0919,3.0981,3.1023,3.1055,3.1098,3.1167,3.1207,3.1275,3.1331,3.1437,3.1477,3.154,3.1543,3.1588,3.1552,3.1546,3.1546,3.1543,3.155,3.1594,3.1595,3.1596,3.1597,0,3.0809,3.0826,3.0887,3.0956,3.1006,3.1061,3.1114,3.1145,3.1187,3.1234,3.1304,3.1348,3.1434,3.1501,3.1568,3.1601,3.1606,3.1608,3.1622,3.1618,3.1606,3.1616,3.1482,3.1605,3.1604,3.1603,3.1603,3.1603,3.0869,3.0918,3.0979,3.1047,3.1092,3.1143,3.1192,3.123,3.129,3.1364,3.1379,3.1454,3.151,3.1601,3.1636,3.1694,3.1684,3.1704,3.171,3.1715,3.1718,3.1596,3.1706,3.1706,3.1706,3.1705,3.1705,0,3.0963,3.1004,3.1067,3.1144,3.1198,3.1201,3.1261,3.1306,3.1373,3.1425,3.1482,3.1563,3.163,3.1676,3.1744,3.1782,3.1786,3.1798,3.1796,3.1804,3.1722,3.1704,3.1794,3.1794,3.1794,3.1794,3.1794,3.1794,3.1019,3.1102,3.1127,3.1232,3.1272,3.1348,3.1382,3.1429,3.1472,3.1564,3.1621,3.1652,3.1702,3.1774,3.1835,3.1847,3.1872,3.1885,3.1897,3.1819,3.181,3.1801,3.1784,3.189,3.189,3.1975,3.1975,3.1976]}]]